Wind_Speed
31 25 23 24 26 27 27 26 24 21 22 24 23 24 23 24 23 21 21 19 18 18 18 17 16 16 17 17 17 17 18 18 17 17 17 17 18 16 15 15 15 16 16 16
35 30 26 25 24 25 26 27 26 23 22 24 25 26 25 25 24 22 21 19 18 18 18 17 17 17 17 18 18 19 19 19 18 18 18 18 18 17 17 17 17 17 17 17
35 33 29 29 27 25 25 27 26 25 25 26 28 28 27 26 24 22 22 21 20 19 18 18 18 18 18 18 18 19 19 19 18 18 17 18 18 18 18 18 18 17 17 17
33 33 33 31 28 27 27 27 26 27 28 29 29 27 27 26 24 23 21 21 21 20 19 19 19 18 18 19 19 19 19 18 17 17 18 18 19 19 19 18 18 18 18 17
33 32 32 32 30 28 27 28 27 28 29 30 28 27 27 24 24 24 21 22 22 21 21 20 20 20 19 20 20 19 19 18 18 18 18 19 19 20 19 19 19 18 18 18
34 31 30 31 30 29 28 30 29 29 30 30 29 28 27 24 24 24 23 22 22 22 22 21 21 21 20 20 20 20 20 19 19 19 19 20 20 20 20 20 19 19 18 17
34 32 30 28 27 28 29 30 29 29 30 29 30 29 27 26 25 25 24 23 23 23 22 22 22 21 21 21 20 20 20 20 20 20 20 20 20 20 21 20 20 19 18 17
35 32 30 29 28 29 29 29 29 29 30 30 29 29 28 27 26 26 25 24 24 24 24 23 22 22 21 21 20 21 21 20 20 20 20 20 20 20 21 20 19 18 18 18
36 35 33 30 31 31 31 30 30 30 31 30 30 29 28 27 27 27 26 25 25 24 24 24 23 22 22 21 21 21 21 21 21 21 20 20 20 20 20 19 18 18 18 19
36 36 35 33 32 32 31 31 31 31 31 30 30 29 28 28 27 27 26 26 25 24 24 23 23 22 22 22 22 23 22 22 21 21 21 20 21 21 20 19 19 19 19 19
37 37 36 36 34 32 31 30 31 31 31 30 29 30 29 28 28 27 26 26 25 24 23 23 23 23 23 23 23 23 23 22 22 22 22 22 22 21 21 20 20 19 20 20
36 37 36 35 34 32 31 30 31 30 29 30 30 29 29 28 28 27 26 25 25 24 23 23 23 24 24 23 23 23 23 23 22 22 22 23 23 23 22 21 21 20 21 21
37 37 37 34 32 31 30 29 28 29 29 30 29 28 27 27 26 26 25 25 25 24 24 24 24 24 24 24 24 23 23 23 23 23 23 24 24 23 23 22 22 22 22 22
34 35 35 33 33 32 30 29 28 28 28 28 28 28 27 27 26 26 25 25 25 25 25 25 25 24 24 24 24 24 24 24 24 24 25 25 24 24 23 23 23 24 24 24
34 34 33 31 31 32 31 30 29 29 28 27 27 27 26 26 26 27 26 26 26 26 26 25 24 24 24 24 24 24 24 24 25 25 25 25 25 24 24 25 25 25 25 26
35 34 33 31 31 31 31 31 30 29 29 27 27 26 26 26 27 26 27 27 27 26 25 25 25 24 24 25 25 25 25 25 26 25 25 25 25 25 26 26 26 26 27 27
33 33 32 31 31 31 31 31 30 30 29 28 27 27 27 26 27 27 28 27 27 26 26 26 26 26 25 25 25 25 25 26 26 26 26 26 26 26 27 27 28 28 27 28
33 33 33 31 32 31 30 30 30 30 29 29 28 28 28 28 27 28 28 29 28 27 27 27 26 26 26 27 27 26 26 27 27 27 26 26 27 27 28 28 28 28 28 29
31 32 33 32 31 32 31 30 30 31 30 29 27 27 27 28 28 28 28 28 28 27 27 27 27 27 27 28 28 29 28 28 28 27 26 26 27 28 28 28 28 29 29 29
31 31 31 31 31 32 32 32 32 30 29 29 29 28 28 28 28 28 28 28 28 28 28 29 29 28 28 29 29 29 29 28 27 27 27 27 28 28 28 29 29 29 29 30
31 31 31 31 31 32 32 32 31 30 30 30 29 29 29 29 28 29 28 28 28 28 28 28 29 29 29 29 29 28 28 28 28 28 28 28 28 28 29 29 30 30 30 31
31 31 31 31 31 31 32 31 31 30 30 30 30 29 29 29 28 29 29 29 29 29 29 28 28 29 29 29 28 28 27 28 28 28 28 28 28 29 29 29 29 30 31 31
31 31 31 32 32 32 32 31 31 30 30 30 30 30 30 29 28 28 29 29 28 28 28 28 28 29 29 28 27 27 27 26 26 26 27 27 27 28 28 28 29 29 30 31
30 30 30 31 31 31 31 31 31 30 29 29 29 29 29 29 28 28 28 28 28 27 27 28 29 28 27 25 25 25 25 25 26 26 27 27 27 28 28 29 29 29 30 31
29 29 29 30 30 30 31 31 31 30 29 28 29 28 28 28 28 28 27 27 27 27 27 27 27 26 25 24 24 24 24 25 25 26 26 27 28 28 29 29 30 31 31 32
27 28 28 28 29 29 29 30 30 29 28 28 27 27 27 28 28 27 27 27 27 26 26 26 26 25 25 25 25 25 25 25 25 26 26 27 28 29 29 30 31 32 32 32
27 28 28 28 28 28 28 28 28 28 28 27 27 26 26 26 27 27 27 26 25 25 25 25 25 25 25 25 25 25 25 26 27 28 27 28 29 30 30 30 31 31 31 31
Wind_Direction
214 217 229 237 233 229 228 228 229 234 244 254 258 261 263 266 268 269 270 272 275 279 283 286 287 293 299 302 307 311 314 314 315 316 317 319 319 319 320 319 318 316 316 316
217 214 217 228 232 232 231 231 229 229 238 247 256 261 262 264 268 270 269 270 273 277 279 282 287 291 296 300 304 308 310 309 310 313 315 317 320 319 319 317 316 315 314 316
219 217 220 225 230 230 229 231 231 231 239 243 251 259 264 267 267 269 266 268 270 274 276 279 285 290 294 298 302 307 309 308 308 310 312 313 315 316 317 317 315 316 315 313
220 219 223 228 232 232 232 231 231 232 238 245 251 258 262 265 266 266 266 266 268 272 274 277 282 287 291 296 301 305 307 308 307 308 310 311 312 313 314 316 316 316 316 313
218 223 228 229 229 230 231 231 230 232 236 242 248 253 258 261 266 265 262 265 267 269 273 276 280 285 289 294 299 302 304 306 305 306 308 310 310 310 311 314 314 315 314 313
218 219 226 232 235 233 232 233 231 233 237 243 246 249 254 257 261 263 263 264 266 267 271 274 278 282 286 290 295 298 300 302 302 303 306 308 309 309 310 311 311 311 311 312
217 219 224 228 233 233 234 235 234 236 240 244 248 250 254 259 261 261 261 262 264 266 269 273 276 280 284 288 292 296 298 299 302 302 303 306 308 307 309 309 309 308 308 308
215 218 224 227 228 232 234 236 236 238 242 245 248 251 254 257 259 259 259 260 262 265 268 270 273 277 282 286 290 294 297 297 299 301 303 305 306 308 310 310 308 309 307 306
219 219 222 225 230 232 232 234 237 241 244 245 248 250 252 253 255 257 258 259 261 264 266 268 271 274 280 283 287 291 294 295 297 300 302 303 305 308 310 310 312 311 309 307
220 220 221 225 232 236 236 236 239 242 244 245 247 250 251 252 254 256 257 258 260 262 264 268 271 274 278 281 285 288 290 294 296 297 299 300 303 306 307 309 311 311 309 309
219 222 224 227 231 234 237 239 241 243 245 246 245 248 250 250 252 254 255 257 259 261 263 265 269 273 277 280 283 287 289 291 293 294 296 299 302 303 304 305 307 308 309 309
222 225 228 228 229 234 239 241 243 243 243 245 246 249 250 250 251 252 254 255 256 258 261 264 267 270 274 277 280 285 289 290 292 293 294 297 299 300 301 301 303 305 306 308
224 226 228 231 231 235 239 241 242 243 244 245 245 248 248 248 249 251 251 253 254 257 260 263 267 270 273 276 279 282 286 288 289 292 294 295 295 297 298 299 301 302 304 305
229 230 232 233 232 235 239 240 241 243 243 243 244 245 247 247 248 249 251 252 254 257 260 263 265 269 272 274 276 280 284 286 287 290 292 293 294 295 297 298 299 300 302 302
230 230 232 232 232 235 238 239 241 243 243 242 243 245 246 245 247 250 252 252 254 257 259 262 264 268 270 272 275 279 282 285 287 288 291 292 294 295 295 296 297 298 299 299
232 231 232 233 234 236 236 238 239 241 242 243 243 244 245 247 249 250 252 252 254 256 259 263 264 267 270 273 275 278 281 284 286 288 289 291 292 293 294 295 296 296 296 298
231 229 232 234 234 235 236 237 238 239 240 243 245 245 247 249 249 250 250 252 254 256 259 261 263 266 270 273 277 279 281 284 286 287 288 290 290 291 293 294 294 297 298 299
231 231 232 233 232 235 235 234 236 238 241 244 245 246 248 249 250 250 251 253 255 256 258 261 264 265 268 272 276 279 280 283 286 287 287 288 289 290 292 294 295 297 298 299
232 232 232 231 231 232 232 234 237 239 241 243 243 246 248 249 250 250 253 254 255 257 259 262 265 269 270 273 276 278 280 283 285 286 286 287 287 288 290 293 295 296 296 298
231 232 233 233 230 230 232 234 237 241 243 244 246 248 249 249 250 252 254 256 258 260 262 263 267 271 272 273 275 278 280 282 283 284 286 286 287 288 290 292 293 295 296 298
230 231 232 233 232 231 232 234 237 240 243 245 247 249 250 250 252 254 256 259 261 261 262 265 268 271 272 273 274 276 278 280 282 283 283 285 287 288 289 291 293 294 296 297
229 230 230 231 233 233 234 235 237 240 244 246 247 249 250 251 252 254 256 259 260 261 263 265 267 269 271 272 273 275 277 279 281 282 283 285 287 289 290 291 293 295 296 296
228 229 230 232 233 234 235 237 239 242 244 245 247 248 249 249 251 254 256 258 259 259 262 264 265 268 270 271 272 274 276 278 279 280 282 285 288 290 291 293 294 294 295 297
228 229 230 231 232 234 237 238 240 243 244 245 247 249 249 248 251 254 256 257 258 261 263 264 265 267 270 270 271 273 275 276 278 281 283 286 288 290 292 294 294 295 297 299
229 230 231 231 232 234 236 238 240 242 243 244 246 247 247 248 250 253 255 258 261 263 265 266 265 266 267 269 271 273 276 278 280 283 285 288 289 290 292 294 295 296 298 300
229 231 232 232 232 235 237 239 240 241 241 242 244 246 247 248 249 251 254 257 260 262 263 264 264 265 265 268 272 275 277 278 280 284 286 289 290 291 293 294 295 296 297 298
230 231 231 232 233 234 236 239 240 240 240 241 244 246 248 249 251 253 255 256 258 259 260 262 263 264 266 269 272 275 278 280 282 284 286 288 290 292 293 295 296 297 298 299
Height
5880 5885 5889 5891 5895 5899 5902 5906 5911 5914 5915 5914 5914 5914 5914 5914 5915 5916 5916 5916 5917 5917 5917 5917 5916 5916 5915 5914 5913 5911 5910 5908 5906 5904 5902 5900 5897 5895 5894 5892 5891 5890 5888 5887
5873 5877 5882 5885 5889 5893 5897 5901 5905 5908 5910 5909 5909 5909 5909 5909 5911 5912 5912 5912 5913 5914 5913 5914 5913 5913 5912 5911 5910 5908 5907 5905 5903 5901 5899 5897 5895 5892 5891 5890 5888 5887 5885 5883
5866 5872 5875 5879 5883 5888 5891 5895 5899 5903 5904 5903 5903 5903 5904 5903 5905 5907 5908 5908 5909 5909 5910 5910 5910 5909 5908 5908 5907 5905 5903 5902 5900 5898 5896 5895 5893 5891 5889 5887 5885 5883 5882 5880
5860 5866 5868 5875 5878 5881 5885 5889 5893 5896 5896 5897 5898 5898 5899 5899 5900 5902 5903 5903 5904 5905 5905 5906 5906 5906 5905 5904 5903 5902 5900 5898 5897 5895 5893 5892 5890 5888 5886 5884 5882 5880 5879 5877
5854 5858 5862 5867 5871 5875 5879 5882 5886 5888 5889 5891 5892 5893 5893 5894 5895 5897 5898 5899 5899 5900 5901 5902 5902 5902 5901 5900 5899 5898 5897 5895 5893 5892 5890 5889 5887 5885 5883 5881 5879 5877 5875 5873
5847 5852 5856 5861 5865 5868 5872 5874 5878 5881 5882 5884 5885 5887 5888 5889 5890 5890 5893 5894 5895 5896 5896 5897 5897 5897 5897 5896 5896 5895 5893 5891 5890 5889 5887 5885 5883 5881 5879 5877 5875 5873 5871 5869
5840 5845 5850 5854 5857 5861 5865 5868 5871 5873 5875 5878 5879 5881 5882 5883 5885 5885 5887 5889 5890 5891 5892 5892 5893 5893 5892 5892 5892 5891 5889 5888 5886 5885 5883 5882 5880 5877 5875 5873 5871 5869 5867 5865
5834 5839 5846 5848 5851 5854 5857 5861 5864 5866 5869 5871 5872 5874 5876 5878 5879 5880 5881 5883 5884 5885 5886 5887 5887 5888 5888 5888 5887 5886 5885 5884 5882 5881 5879 5877 5875 5873 5871 5868 5866 5865 5863 5861
5828 5833 5836 5840 5843 5845 5849 5853 5856 5859 5862 5864 5866 5867 5869 5871 5873 5874 5876 5877 5879 5880 5881 5881 5882 5883 5883 5883 5883 5882 5881 5880 5878 5877 5875 5873 5872 5869 5867 5864 5862 5861 5860 5858
5819 5824 5829 5832 5835 5839 5843 5846 5849 5852 5854 5857 5859 5861 5863 5865 5866 5868 5869 5871 5873 5874 5875 5876 5877 5877 5878 5878 5878 5877 5876 5875 5873 5872 5871 5869 5867 5865 5863 5861 5859 5858 5856 5854
5811 5816 5821 5825 5829 5832 5836 5839 5842 5845 5847 5850 5852 5854 5856 5859 5860 5862 5864 5865 5867 5868 5869 5870 5871 5872 5872 5872 5872 5872 5871 5870 5868 5867 5866 5864 5863 5861 5859 5857 5855 5854 5852 5850
5805 5809 5813 5817 5822 5826 5829 5832 5834 5837 5841 5843 5845 5847 5849 5852 5854 5856 5858 5859 5861 5862 5863 5865 5866 5866 5866 5866 5866 5866 5865 5864 5863 5862 5860 5859 5858 5856 5854 5853 5851 5849 5848 5846
5798 5802 5807 5811 5815 5819 5822 5825 5828 5831 5834 5836 5838 5841 5842 5845 5848 5850 5852 5853 5855 5856 5858 5859 5860 5860 5860 5861 5861 5860 5860 5859 5858 5856 5855 5854 5852 5851 5849 5848 5846 5844 5843 5841
5791 5796 5801 5805 5809 5813 5816 5819 5822 5825 5826 5829 5832 5835 5837 5839 5842 5843 5845 5847 5849 5850 5852 5853 5854 5854 5854 5854 5854 5854 5854 5853 5852 5851 5849 5848 5847 5845 5844 5842 5841 5839 5837 5835
5785 5790 5794 5799 5803 5807 5810 5813 5816 5818 5820 5823 5826 5829 5831 5834 5836 5837 5838 5840 5842 5844 5845 5846 5847 5848 5848 5848 5848 5848 5847 5847 5846 5844 5843 5842 5840 5839 5837 5836 5835 5833 5831 5829
5780 5784 5787 5792 5796 5800 5803 5806 5809 5812 5815 5818 5821 5823 5825 5827 5829 5830 5832 5833 5836 5837 5838 5839 5840 5841 5841 5841 5841 5841 5841 5840 5839 5838 5837 5835 5834 5832 5831 5829 5828 5826 5825 5822
5774 5777 5781 5784 5789 5793 5796 5799 5803 5804 5808 5812 5814 5817 5819 5820 5822 5824 5825 5827 5829 5831 5832 5833 5834 5834 5835 5835 5835 5835 5834 5833 5832 5831 5830 5829 5827 5826 5824 5822 5821 5819 5817 5815
5767 5771 5775 5779 5783 5786 5789 5793 5796 5799 5802 5805 5807 5810 5812 5814 5816 5817 5819 5821 5822 5824 5825 5826 5827 5827 5828 5828 5828 5828 5827 5826 5826 5824 5823 5822 5820 5819 5817 5816 5814 5812 5810 5808
5760 5764 5768 5772 5776 5780 5783 5787 5790 5793 5796 5798 5800 5803 5805 5807 5808 5810 5812 5814 5815 5817 5819 5819 5820 5820 5820 5821 5820 5820 5820 5819 5818 5817 5816 5815 5813 5812 5810 5809 5807 5805 5803 5800
5754 5757 5761 5766 5770 5773 5777 5780 5783 5786 5789 5792 5794 5796 5798 5800 5802 5804 5806 5807 5809 5810 5811 5812 5813 5813 5813 5813 5813 5812 5812 5811 5811 5810 5808 5807 5806 5804 5803 5801 5799 5797 5795 5793
5747 5751 5755 5760 5763 5767 5770 5774 5777 5780 5783 5785 5787 5789 5791 5793 5796 5797 5799 5801 5802 5803 5804 5805 5805 5805 5805 5805 5805 5805 5804 5804 5803 5802 5801 5800 5798 5797 5795 5793 5792 5790 5787 5785
5741 5745 5749 5753 5756 5760 5764 5767 5770 5773 5776 5778 5780 5782 5785 5787 5788 5790 5792 5793 5794 5795 5796 5797 5797 5798 5798 5797 5797 5797 5797 5796 5795 5794 5793 5792 5791 5789 5788 5786 5784 5782 5779 5777
5735 5739 5742 5746 5750 5754 5757 5760 5763 5766 5769 5771 5773 5775 5777 5780 5781 5783 5785 5786 5786 5787 5788 5789 5789 5789 5789 5789 5789 5789 5788 5788 5787 5786 5785 5784 5783 5782 5780 5778 5776 5774 5771 5768
5729 5732 5736 5739 5743 5747 5750 5753 5756 5759 5761 5764 5766 5768 5770 5773 5774 5776 5777 5778 5779 5779 5780 5781 5781 5781 5781 5781 5781 5781 5781 5780 5780 5779 5778 5777 5775 5774 5772 5770 5768 5765 5763 5760
5723 5726 5729 5733 5736 5740 5743 5746 5749 5752 5754 5757 5759 5761 5764 5766 5768 5769 5770 5771 5772 5772 5773 5774 5774 5774 5774 5774 5774 5774 5774 5773 5772 5772 5770 5769 5767 5766 5764 5762 5759 5757 5754 5751
5717 5720 5723 5726 5730 5733 5736 5739 5742 5745 5748 5750 5752 5755 5757 5758 5760 5762 5763 5764 5765 5765 5766 5766 5766 5767 5767 5767 5767 5767 5766 5766 5765 5764 5763 5761 5760 5758 5756 5753 5751 5748 5746 5743
5711 5714 5717 5720 5723 5726 5729 5732 5735 5738 5741 5744 5746 5748 5749 5751 5753 5754 5755 5756 5757 5758 5758 5759 5759 5760 5760 5760 5760 5759 5759 5758 5757 5756 5755 5753 5752 5749 5747 5745 5742 5740 5737 5734